TimeCDT,TemperatureF,Dew PointF,Humidity,Sea Level PressureIn,VisibilityMPH,Wind Direction,Wind SpeedMPH,Gust SpeedMPH,PrecipitationIn,Events,Conditions,WindDirDegrees,DateUTC
12:15 AM,51.8,46.4,82,29.85,10.0,WNW,9.2,-,N/A,,Clear,300,2013-10-07 05:15:00
12:35 AM,50.0,46.4,87,29.84,10.0,WNW,8.1,-,N/A,,Clear,300,2013-10-07 05:35:00
12:54 AM,48.2,46.4,93,29.85,10.0,NW,5.8,-,N/A,,Clear,320,2013-10-07 05:54:00
1:15 AM,48.2,46.4,93,29.85,10.0,NW,4.6,-,N/A,,Clear,310,2013-10-07 06:15:00
1:35 AM,46.4,44.6,93,29.86,10.0,NNW,4.6,-,N/A,,Clear,340,2013-10-07 06:35:00
1:54 AM,46.4,44.6,93,29.86,10.0,North,3.5,-,N/A,,Clear,350,2013-10-07 06:54:00
2:15 AM,44.6,44.6,100,29.86,10.0,Calm,Calm,-,N/A,,Clear,0,2013-10-07 07:15:00
2:35 AM,46.4,44.6,93,29.87,10.0,Calm,Calm,-,N/A,,Clear,0,2013-10-07 07:35:00
2:55 AM,44.6,44.6,100,29.87,10.0,Calm,Calm,-,N/A,,Clear,0,2013-10-07 07:55:00
3:15 AM,42.8,42.8,100,29.88,10.0,North,5.8,-,N/A,,Clear,350,2013-10-07 08:15:00
3:34 AM,42.8,42.8,100,29.89,10.0,North,5.8,-,N/A,,Clear,350,2013-10-07 08:34:00
3:55 AM,42.8,42.8,100,29.88,10.0,North,4.6,-,N/A,,Clear,360,2013-10-07 08:55:00
4:15 AM,42.8,42.8,100,29.89,10.0,Calm,Calm,-,N/A,,Clear,0,2013-10-07 09:15:00
4:34 AM,42.8,42.8,100,29.89,10.0,North,3.5,-,N/A,,Clear,10,2013-10-07 09:34:00
4:55 AM,42.8,42.8,100,29.90,10.0,Calm,Calm,-,N/A,,Clear,0,2013-10-07 09:55:00
5:15 AM,42.8,42.8,100,29.91,10.0,Calm,Calm,-,N/A,,Clear,0,2013-10-07 10:15:00
5:34 AM,41.0,41.0,100,29.91,10.0,WNW,3.5,-,N/A,,Clear,290,2013-10-07 10:34:00
5:55 AM,41.0,41.0,100,29.92,10.0,NW,3.5,-,N/A,,Clear,320,2013-10-07 10:55:00
6:15 AM,41.0,41.0,100,29.92,10.0,Calm,Calm,-,N/A,,Clear,0,2013-10-07 11:15:00
6:34 AM,41.0,41.0,100,29.92,10.0,Calm,Calm,-,N/A,,Clear,0,2013-10-07 11:34:00
6:55 AM,41.0,41.0,100,29.93,10.0,Calm,Calm,-,N/A,,Clear,0,2013-10-07 11:55:00
7:15 AM,41.0,41.0,100,29.94,10.0,Calm,Calm,-,N/A,,Clear,0,2013-10-07 12:15:00
7:35 AM,39.2,39.2,100,29.94,10.0,Calm,Calm,-,N/A,,Clear,0,2013-10-07 12:35:00
7:55 AM,39.2,39.2,100,29.95,10.0,SW,3.5,-,N/A,,Clear,230,2013-10-07 12:55:00
8:14 AM,39.2,39.2,100,29.95,10.0,Calm,Calm,-,N/A,,Clear,0,2013-10-07 13:14:00
8:35 AM,41.0,41.0,100,29.95,10.0,Calm,Calm,-,N/A,,Clear,0,2013-10-07 13:35:00
8:54 AM,44.6,44.6,100,29.95,10.0,Calm,Calm,-,N/A,,Clear,0,2013-10-07 13:54:00
9:15 AM,44.6,44.6,100,29.95,10.0,Calm,Calm,-,N/A,,Clear,0,2013-10-07 14:15:00
9:34 AM,46.4,44.6,93,29.96,10.0,Calm,Calm,-,N/A,,Clear,0,2013-10-07 14:34:00
9:55 AM,46.4,46.4,100,29.97,10.0,Calm,Calm,-,N/A,,Clear,0,2013-10-07 14:55:00
10:15 AM,48.2,46.4,93,29.97,10.0,Calm,Calm,-,N/A,,Clear,0,2013-10-07 15:15:00
10:34 AM,50.0,46.4,87,29.97,10.0,Calm,Calm,-,N/A,,Clear,0,2013-10-07 15:34:00
10:55 AM,51.8,46.4,82,29.98,10.0,Calm,Calm,-,N/A,,Clear,0,2013-10-07 15:55:00
11:15 AM,53.6,48.2,82,29.97,10.0,Calm,Calm,-,N/A,,Clear,0,2013-10-07 16:15:00
11:34 AM,55.4,46.4,72,29.97,10.0,Calm,Calm,-,N/A,,Clear,0,2013-10-07 16:34:00
11:55 AM,57.2,46.4,67,29.97,10.0,Calm,Calm,-,N/A,,Clear,0,2013-10-07 16:55:00
12:15 PM,57.2,44.6,63,29.97,10.0,Calm,Calm,-,N/A,,Clear,0,2013-10-07 17:15:00
12:34 PM,60.8,35.6,39,29.97,10.0,Calm,Calm,-,N/A,,Clear,0,2013-10-07 17:34:00
12:55 PM,60.8,42.8,52,29.97,10.0,Calm,Calm,-,N/A,,Clear,0,2013-10-07 17:55:00
1:15 PM,60.8,42.8,52,29.96,10.0,WSW,4.6,-,N/A,,Clear,240,2013-10-07 18:15:00
1:35 PM,-9999,-9999,N/A,29.95,-9999.0,WSW,3.5,-,N/A,,Unknown,240,2013-10-07 18:35:00
1:55 PM,60.8,39.2,45,29.95,10.0,South,5.8,-,N/A,,Clear,190,2013-10-07 18:55:00
2:14 PM,62.6,39.2,42,29.94,10.0,SW,4.6,-,N/A,,Clear,220,2013-10-07 19:14:00
2:35 PM,62.6,37.4,39,29.93,10.0,SSW,6.9,-,N/A,,Clear,210,2013-10-07 19:35:00
2:55 PM,62.6,39.2,42,29.93,10.0,SW,4.6,-,N/A,,Clear,220,2013-10-07 19:55:00
3:14 PM,62.6,39.2,42,29.93,10.0,SSW,5.8,-,N/A,,Clear,210,2013-10-07 20:14:00
3:35 PM,62.6,37.4,39,29.92,10.0,Calm,Calm,-,N/A,,Clear,0,2013-10-07 20:35:00
3:55 PM,64.4,35.6,34,29.91,10.0,SSW,5.8,-,N/A,,Clear,210,2013-10-07 20:55:00
4:14 PM,64.4,37.4,37,29.90,10.0,South,5.8,-,N/A,,Clear,190,2013-10-07 21:14:00
4:35 PM,64.4,35.6,34,29.90,10.0,SSW,6.9,-,N/A,,Clear,210,2013-10-07 21:35:00
4:55 PM,66.2,30.2,26,29.90,10.0,South,8.1,-,N/A,,Clear,170,2013-10-07 21:55:00
5:14 PM,64.4,30.2,28,29.89,10.0,South,5.8,-,N/A,,Clear,170,2013-10-07 22:14:00
5:35 PM,64.4,30.2,28,29.89,10.0,South,5.8,-,N/A,,Clear,180,2013-10-07 22:35:00
5:54 PM,64.4,35.6,34,29.89,10.0,South,4.6,-,N/A,,Clear,180,2013-10-07 22:54:00
6:15 PM,64.4,37.4,37,29.88,10.0,South,5.8,-,N/A,,Clear,170,2013-10-07 23:15:00
6:35 PM,62.6,39.2,42,29.88,10.0,South,4.6,-,N/A,,Clear,170,2013-10-07 23:35:00
6:54 PM,60.8,42.8,52,29.87,10.0,SSE,4.6,-,N/A,,Clear,150,2013-10-07 23:54:00
7:11 PM,57.2,44.6,63,29.87,10.0,SSE,4.6,-,N/A,,Clear,150,2013-10-08 00:11:00
7:35 PM,57.2,44.6,63,29.87,10.0,SSE,5.8,-,N/A,,Clear,150,2013-10-08 00:35:00
7:54 PM,55.4,44.6,67,29.87,10.0,SSE,4.6,-,N/A,,Clear,150,2013-10-08 00:54:00
8:15 PM,55.4,44.6,67,29.87,10.0,SSE,4.6,-,N/A,,Clear,160,2013-10-08 01:15:00
8:35 PM,53.6,44.6,72,29.86,10.0,SSE,6.9,-,N/A,,Clear,150,2013-10-08 01:35:00
8:54 PM,53.6,42.8,67,29.86,10.0,SSE,6.9,-,N/A,,Clear,150,2013-10-08 01:54:00
9:15 PM,53.6,42.8,67,29.85,10.0,SSE,5.8,-,N/A,,Clear,160,2013-10-08 02:15:00
9:35 PM,53.6,42.8,67,29.85,10.0,SSE,6.9,-,N/A,,Clear,150,2013-10-08 02:35:00
9:54 PM,53.6,42.8,67,29.85,10.0,SSE,8.1,-,N/A,,Clear,160,2013-10-08 02:54:00
10:15 PM,53.6,42.8,67,29.84,10.0,SSE,8.1,-,N/A,,Clear,150,2013-10-08 03:15:00
10:35 PM,53.6,42.8,67,29.84,10.0,SSE,9.2,-,N/A,,Clear,160,2013-10-08 03:35:00
10:54 PM,53.6,41.0,62,29.84,10.0,SSE,10.4,16.1,N/A,,Clear,160,2013-10-08 03:54:00
11:15 PM,55.4,39.2,54,29.83,10.0,SSE,12.7,-,N/A,,Clear,160,2013-10-08 04:15:00
11:34 PM,53.6,39.2,58,29.82,10.0,South,13.8,-,N/A,,Clear,170,2013-10-08 04:34:00
11:55 PM,53.6,41.0,62,29.81,10.0,South,11.5,17.3,N/A,,Clear,170,2013-10-08 04:55:00